| time (UTC) | temp F | wind direction | speed knots | gust knots | rain 1hr in | rain 24hr in | rain mn in | humidity % | barometer mb |
| 20260506013053 | 80 | 103 | 0.9 | 4.3 | 0.00 | 0.00 | 0.00 | 76 | 1005.0 |
| 20260506011553 | 80 | 107 | 0.0 | 4.3 | 0.00 | 0.00 | 0.00 | 76 | 1004.7 |
| 20260506010042 | 80 | 102 | 0.9 | 3.5 | 0.00 | 0.00 | 0.00 | 75 | 1004.5 |
| 20260506004540 | 80 | 100 | 0.9 | 2.6 | 0.00 | 0.00 | 0.00 | 75 | 1004.4 |
| 20260506003041 | 81 | 89 | 0.9 | 4.3 | 0.00 | 0.00 | 0.00 | 74 | 1004.4 |
| 20260506001541 | 81 | 98 | 0.9 | 4.3 | 0.00 | 0.00 | 0.00 | 75 | 1004.3 |
| 20260506000040 | 81 | 106 | 0.9 | 3.5 | 0.00 | 0.00 | 0.00 | 74 | 1004.4 |
| 20260505234538 | 82 | 99 | 1.7 | 5.2 | 0.00 | 0.00 | 0.00 | 74 | 1004.3 |
| 20260505233038 | 82 | 95 | 2.6 | 6.1 | 0.00 | 0.00 | 0.00 | 74 | 1004.2 |
| 20260505231635 | 82 | 101 | 0.9 | 3.5 | 0.00 | 0.00 | 0.00 | 74 | 1004.1 |
| 20260505230034 | 83 | 99 | 1.7 | 3.5 | 0.00 | 0.00 | 0.00 | 73 | 1004.2 |
| 20260505224533 | 83 | 93 | 1.7 | 4.3 | 0.00 | 0.00 | 0.00 | 73 | 1004.3 |
| 20260505223032 | 83 | 96 | 1.7 | 7.0 | 0.00 | 0.00 | 0.00 | 71 | 1004.3 |
| 20260505221536 | 84 | 89 | 0.9 | 3.5 | 0.00 | 0.00 | 0.00 | 71 | 1004.3 |
| 20260505220034 | 85 | 105 | 0.9 | 2.6 | 0.00 | 0.00 | 0.00 | 70 | 1004.4 |
| 20260505214548 | 85 | 105 | 0.0 | 2.6 | 0.00 | 0.00 | 0.00 | 70 | 1004.6 |
| 20260505213132 | 85 | 110 | 0.9 | 6.1 | 0.00 | 0.00 | 0.00 | 70 | 1004.7 |
| 20260505211528 | 85 | 94 | 0.9 | 4.3 | 0.00 | 0.00 | 0.00 | 70 | 1004.8 |
| 20260505210026 | 85 | 98 | 1.7 | 5.2 | 0.00 | 0.00 | 0.00 | 70 | 1005.0 |
| 20260505204526 | 85 | 108 | 0.9 | 5.2 | 0.00 | 0.00 | 0.00 | 70 | 1005.2 |
| 20260505203030 | 86 | 110 | 1.7 | 4.3 | 0.00 | 0.00 | 0.00 | 68 | 1005.5 |
| 20260505201530 | 85 | 125 | 0.9 | 6.1 | 0.00 | 0.00 | 0.00 | 71 | 1005.7 |
| 20260505200020 | 84 | 103 | 0.9 | 3.5 | 0.00 | 0.00 | 0.00 | 72 | 1006.0 |
| 20260505194517 | 84 | 98 | 0.9 | 2.6 | 0.00 | 0.00 | 0.00 | 72 | 1006.1 |
| 20260505193015 | 83 | 110 | 1.7 | 3.5 | 0.00 | 0.00 | 0.00 | 73 | 1006.2 |
| 20260505191517 | 84 | 101 | 0.0 | 3.5 | 0.00 | 0.00 | 0.00 | 72 | 1006.2 |
| 20260505190012 | 82 | 106 | 0.9 | 2.6 | 0.00 | 0.00 | 0.00 | 74 | 1006.3 |
| 20260505184508 | 82 | 98 | 1.7 | 3.5 | 0.00 | 0.00 | 0.00 | 74 | 1006.5 |
| 20260505183012 | 82 | 97 | 0.9 | 2.6 | 0.00 | 0.00 | 0.00 | 74 | 1006.6 |
| 20260505181508 | 82 | 103 | 0.0 | 2.6 | 0.00 | 0.00 | 0.00 | 75 | 1006.7 |
| 20260505180008 | 81 | 103 | 0.9 | 2.6 | 0.00 | 0.00 | 0.00 | 75 | 1006.8 |
| 20260505174506 | 80 | 110 | 0.0 | 1.7 | 0.00 | 0.00 | 0.00 | 76 | 1006.9 |
| 20260505173001 | 80 | 93 | 0.0 | 6.1 | 0.00 | 0.00 | 0.00 | 76 | 1007.2 |
| 20260505171601 | 80 | 117 | 0.0 | 2.6 | 0.00 | 0.00 | 0.00 | 76 | 1007.2 |
| 20260505170111 | 79 | 98 | 0.9 | 3.5 | 0.00 | 0.00 | 0.00 | 76 | 1007.2 |
| 20260505164558 | 79 | 96 | 0.9 | 4.3 | 0.00 | 0.00 | 0.00 | 76 | 1007.4 |
| 20260505163059 | 79 | 116 | 0.0 | 2.6 | 0.00 | 0.00 | 0.00 | 76 | 1007.2 |
| 20260505161614 | 78 | 95 | 0.9 | 2.6 | 0.00 | 0.00 | 0.00 | 77 | 1007.2 |
| 20260505153101 | 76 | 87 | 0.9 | 2.6 | 0.00 | 0.00 | 0.00 | 74 | 1007.1 |
| 20260505151600 | 76 | 105 | 0.0 | 2.6 | 0.00 | 0.00 | 0.00 | 76 | 1007.0 |
| 20260505124544 | 73 | 112 | 0.0 | 1.7 | 0.00 | 0.00 | 0.00 | 70 | 1006.4 |
| 20260505123043 | 72 | 103 | 0.0 | 1.7 | 0.00 | 0.00 | 0.00 | 69 | 1006.5 |
| 20260505121603 | 72 | 101 | 0.0 | 1.7 | 0.00 | 0.00 | 0.00 | 68 | 1006.3 |
| 20260505120048 | 71 | 102 | 0.0 | 1.7 | 0.00 | 0.00 | 0.00 | 69 | 1006.2 |
| 20260505114547 | 71 | 103 | 0.0 | 1.7 | 0.00 | 0.00 | 0.00 | 69 | 1006.0 |
| 20260505113048 | 71 | 103 | 0.0 | 1.7 | 0.00 | 0.00 | 0.00 | 70 | 1006.2 |
| 20260505111545 | 71 | 100 | 0.0 | 2.6 | 0.00 | 0.00 | 0.00 | 70 | 1006.2 |
| 20260505101551 | 71 | 101 | 0.0 | 1.7 | 0.00 | 0.00 | 0.00 | 72 | 1006.3 |
| 20260505100040 | 71 | 99 | 0.0 | 2.6 | 0.00 | 0.00 | 0.00 | 73 | 1006.2 |
| 20260505094540 | 71 | 102 | 0.0 | 1.7 | 0.00 | 0.00 | 0.00 | 73 | 1006.4 |
| 20260505093042 | 71 | 101 | 0.0 | 0.0 | 0.00 | 0.00 | 0.00 | 73 | 1006.3 |
| 20260505091540 | 70 | 101 | 0.0 | 0.0 | 0.00 | 0.00 | 0.00 | 73 | 1006.5 |
| 20260505090048 | 70 | 101 | 0.0 | 0.0 | 0.00 | 0.00 | 0.00 | 73 | 1006.6 |
| 20260505084537 | 70 | 97 | 0.0 | 0.0 | 0.00 | 0.00 | 0.00 | 74 | 1006.6 |
| 20260505083036 | 70 | 97 | 0.0 | 0.0 | 0.00 | 0.00 | 0.00 | 74 | 1006.7 |
| 20260505081539 | 70 | 97 | 0.0 | 0.0 | 0.00 | 0.00 | 0.00 | 75 | 1006.9 |
| 20260505080030 | 70 | 97 | 0.0 | 0.0 | 0.00 | 0.00 | 0.00 | 76 | 1007.1 |
| 20260505074530 | 70 | 97 | 0.0 | 0.0 | 0.00 | 0.00 | 0.00 | 76 | 1007.2 |
| 20260505073036 | 71 | 103 | 0.0 | 0.0 | 0.00 | 0.00 | 0.00 | 77 | 1007.1 |
| 20260505071527 | 71 | 101 | 0.0 | 0.0 | 0.00 | 0.00 | 0.00 | 77 | 1007.2 |
| 20260505070026 | 71 | 103 | 0.0 | 2.6 | 0.00 | 0.00 | 0.00 | 77 | 1007.3 |
| 20260505064525 | 71 | 101 | 0.0 | 1.7 | 0.00 | 0.00 | 0.00 | 78 | 1007.5 |
| 20260505063025 | 71 | 101 | 1.7 | 5.2 | 0.00 | 0.00 | 0.00 | 78 | 1007.7 |
| 20260505061524 | 71 | 100 | 0.0 | 3.5 | 0.00 | 0.00 | 0.00 | 78 | 1007.9 |
| 20260505060031 | 71 | 102 | 0.0 | 3.5 | 0.00 | 0.00 | 0.00 | 78 | 1008.1 |
| 20260505054534 | 71 | 103 | 0.9 | 4.3 | 0.00 | 0.00 | 0.00 | 78 | 1008.0 |
| 20260505053021 | 71 | 107 | 0.0 | 2.6 | 0.00 | 0.00 | 0.00 | 78 | 1008.1 |
| 20260505051520 | 71 | 102 | 0.0 | 1.7 | 0.00 | 0.00 | 0.00 | 78 | 1008.4 |
| 20260505041519 | 72 | 101 | 0.0 | 2.6 | 0.00 | 0.00 | 0.00 | 77 | 1008.5 |
| 20260505040019 | 72 | 102 | 0.9 | 3.5 | 0.00 | 0.00 | 0.00 | 77 | 1008.4 |
| 20260505034518 | 72 | 108 | 1.7 | 4.3 | 0.00 | 0.00 | 0.00 | 76 | 1008.4 |
| 20260505033019 | 73 | 107 | 1.7 | 7.0 | 0.00 | 0.00 | 0.00 | 76 | 1008.8 |
| 20260505031517 | 73 | 99 | 1.7 | 6.1 | 0.00 | 0.00 | 0.00 | 76 | 1008.7 |
| 20260505030024 | 74 | 106 | 1.7 | 5.2 | 0.00 | 0.00 | 0.00 | 75 | 1008.6 |
| 20260505024514 | 74 | 96 | 0.0 | 4.3 | 0.00 | 0.00 | 0.00 | 75 | 1008.5 |
| 20260505023015 | 74 | 103 | 1.7 | 5.2 | 0.00 | 0.00 | 0.00 | 74 | 1008.7 |
| 20260505021509 | 74 | 111 | 2.6 | 7.0 | 0.00 | 0.00 | 0.00 | 74 | 1008.3 |
| 20260505020006 | 75 | 79 | 1.7 | 6.1 | 0.00 | 0.00 | 0.00 | 73 | 1008.3 |
| 20260505014508 | 75 | 108 | 1.7 | 5.2 | 0.00 | 0.00 | 0.00 | 73 | 1008.2 |